Home   Weather   Lippstadt   Past weeks

Flag for Germany Past Weather in Lippstadt, North Rhine-Westphalia, Germany — Yesterday and Last 2 Weeks

Now
63 °F

Broken clouds.


Feels Like: 63 °F
Forecast: 52 / 69 °F
Wind: 12 mph from West

Location: Paderborn / Lippstadt

Current Time: Aug 20, 2017 at 5:31:41 pm

Latest Report: Aug 20, 2017 at 4:50 pm


Visibility: N/A

Pressure: 30.18 "Hg

Humidity: 56%

Dew Point: 46 °F

Location of LippstadtLocation

Past Weather in Lippstadt — Graph

°F

Lippstadt Temperature Yesterday

Maximum temperature yesterday: 63 °F (at 1:20 pm)
Minimum temperature yesterday: 52 °F (at 6:50 am)
Average temperature yesterday: 57 °F

High & Low Weather Summary for the Past Weeks

 TemperatureHumidityPressure
High79 °F (Aug 15, 11:50 am)100% (Aug 10, 11:20 pm)30.24 "Hg (Aug 10, 11:20 pm)
Low50 °F (Aug 7, 2:50 am)31% (Aug 7, 4:20 pm)29.80 "Hg (Aug 8, 10:50 am)
Average62 °F75%30.05 "Hg
* Reported Aug 5 4:20 pm — Aug 20 4:20 pm, Lippstadt. Weather by CustomWeather, © 2017

Note: Actual official high and low records may vary slightly from our data, if they occured in-between our weather recording intervals... More about our weather records

Advertising

Lippstadt Weather History for the Previous 24 Hours

Scroll right to see more
 ConditionsComfort  
Time TempWeatherWind HumidityBarometerVisibility
4:20 pm
Sun, Aug 20
63 °FScattered clouds.12 mph56%30.18 "HgN/A
3:50 pm63 °FBroken clouds.9 mph56%30.18 "HgN/A
3:20 pm63 °FBroken clouds.12 mph59%30.18 "HgN/A
2:50 pm63 °FScattered clouds.13 mph59%30.18 "HgN/A
2:20 pm63 °FScattered clouds.10 mph64%30.18 "HgN/A
1:50 pm63 °FScattered clouds.14 mph59%30.18 "HgN/A
1:20 pm61 °FSprinkles. Scattered clouds.15 mph59%30.18 "HgN/A
12:50 pm61 °FScattered clouds.9 mph63%30.18 "HgN/A
12:20 pm59 °FScattered clouds.10 mph68%30.18 "HgN/A
11:50 am61 °FScattered clouds.12 mph68%30.18 "HgN/A
11:20 am59 °FScattered clouds.12 mph72%30.18 "HgN/A
10:50 am59 °FSunny.12 mph68%30.18 "Hg10 mi
10:20 am59 °FSunny.10 mph72%30.18 "Hg10 mi
9:20 am57 °FSprinkles. Scattered clouds.10 mph77%30.15 "HgN/A
8:50 am57 °FScattered clouds.10 mph77%30.15 "HgN/A
8:20 am57 °FScattered clouds.9 mph77%30.15 "HgN/A
7:50 am55 °FScattered clouds.12 mph82%30.15 "HgN/A
7:20 am55 °FScattered clouds.13 mph82%30.15 "HgN/A
6:50 am54 °FScattered clouds.10 mph88%30.12 "HgN/A
6:20 am54 °FScattered clouds.10 mph88%30.12 "HgN/A
5:50 am54 °FPassing clouds.9 mph88%30.12 "HgN/A
5:20 am54 °FPassing clouds.7 mph88%30.12 "HgN/A
4:50 am54 °FPassing clouds.9 mph88%30.12 "HgN/A
4:20 am54 °FPassing clouds.8 mph88%30.12 "HgN/A
3:50 am54 °FPassing clouds.9 mph88%30.12 "HgN/A
3:20 am54 °FPassing clouds.12 mph82%30.12 "HgN/A
2:50 am54 °FPassing clouds.13 mph88%30.12 "HgN/A
2:20 am54 °FClear.10 mph88%30.12 "Hg10 mi
1:50 am54 °FClear.13 mph88%30.09 "Hg10 mi
1:20 am54 °FClear.9 mph88%30.12 "Hg10 mi
12:50 am54 °FClear.8 mph88%30.12 "Hg10 mi
12:20 am54 °FClear.8 mph88%30.12 "Hg10 mi
11:50 pm
Sat, Aug 19
54 °FClear.8 mph88%30.12 "Hg10 mi
11:20 pm57 °FClear.9 mph82%30.12 "Hg10 mi
10:50 pm57 °FClear.9 mph77%30.12 "Hg10 mi
10:20 pm57 °FClear.9 mph82%30.09 "Hg10 mi
9:50 pm57 °FClear.10 mph82%30.09 "Hg10 mi
9:20 pm57 °FClear.9 mph77%30.09 "Hg10 mi
8:50 pm57 °FClear.10 mph77%30.09 "Hg10 mi
8:20 pm57 °FSunny.8 mph82%30.09 "Hg10 mi
7:50 pm57 °FSprinkles. Scattered clouds.12 mph88%30.09 "HgN/A
7:20 pm57 °FScattered showers. Scattered clouds.5 mph88%30.07 "HgN/A
6:50 pm57 °FPassing clouds.5 mph88%30.07 "HgN/A
6:20 pm59 °FSprinkles. Scattered clouds.12 mph68%30.07 "Hg4 mi
Weather by CustomWeather, © 2017

See weather overviewHow to use our weather pages